1st Responders/1st Detectors/Storm Spotters Weather Summary for Hopkins County, KY

Forecast Maps


Reg. NEXRAD Animation


National Fire Danger: Day 1 & 2 Map

Current NWS Watch/Warnings

SPC Convective Day 1 Outlook


Day 2 Outlook

(Click images to enlarge|Page will refresh every 5 minutes)
UK Ag. Weather Center Desktop Severe Weather Service[HERE]
Hopkins County, KY Hazardous Weather Outlook Webcast
(9 AM to 9 PM Mon-Fri)
[Fast]
[Dial-up]


UKAWC 1st Detectors/1st Responders Precision Weather Forecast For HOPKINS County, Kentucky
(based on the NWS County Digital Forecast)

ISSUED AT 08:00 UTC ON FRIDAY JAN 21 2022
DAY FRIDAY
CDT 3HR 4A 5A 6A 7A 8A 9A 10A 11A NOON 1P 2P 3P 4P 5P 6P
MAX/MIN -- -- -- 16° -- -- -- -- -- -- -- -- -- -- 29°
TEMP 18° 16° 16° 16° 18° 20° 22° 23° 25° 27° 29° 29° 29° 27° 25°
SKY COVER 54% 47% 46% 43% 38% 32% 28% 20% 13% 5% 4% 4% 3% 3% 3%
Clouds
DEW PT 11° 11° 11°
RH 76% 76% 73% 77% 70% 65% 58% 54% 49% 43% 41% 40% 40% 43% 50%
POP 12HR -- -- -- 1% -- -- -- -- -- -- -- -- -- -- --
RAIN/SNOW (liq.equ) -- -- -- 0.00in -- -- -- -- -- 0.00in -- -- -- -- --
SNOWFALL -- -- -- 0in -- -- -- -- -- 0in -- -- -- -- --
WIND SPEED(MPH) 5 6 5 5 5 7 7 7 7 7 7 7 7 6 6
WIND Gust(MPH) 13 13 13 10 10 13 13 10 10 10 9 9 8 8 8
WIND DIR N N N N N NE NE NE NE NE NE NE NE NE NE
DEW Freeze Freeze Freeze Freeze Freeze -- -- -- -- -- -- -- -- -- --
HeatIndex 11 8 9 9 11 11 13 15 18 20 21 23 22 21 18
Snow -- -- -- -- -- -- -- -- -- -- -- -- -- -- --
Rain -- -- -- -- -- -- -- -- -- -- -- -- -- -- --
WIND CHILL 11° 11° 11° 14° 15° 17° 20° 22° 22° 22° 21° 18°
SPRAY COND
DRY COND
LIVESTOCK COLDSTRESS



DAY SATURDAY SUNDAY MONDAY TUESDAY WEDNESDAY THURSDAY
CDT 6HR 7P 8P 9P 10P 11P MIDN 1A 2A 3A 4A 5A 6A 7A 8A 9A 10A 11A NOON 1P 2P 3P 4P 7P 10P 1A 4A 7A 10A 1P 4P 7P 1A 7A 1P 7P 1A 7A 1P 7P 1A 7A 1P 7P 1A 7A 1P 7P
MAX/MIN -- -- -- -- -- -- -- -- -- -- -- -- 13° -- -- -- -- -- -- -- -- 36° -- -- -- -- 20° -- -- 45° -- -- 23° 49° -- -- 29° 38° -- -- 18° 32° -- -- 16° 38° --
TEMP 22° 20° 20° 18° 18° 18° 18° 16° 16° 14° 13° 13° 16° 18° 20° 22° 25° 29° 31° 34° 36° 36° 29° 27° 25° 25° 22° 31° 40° 43° 36° 29° 25° 43° 41° 38° 32° 34° 31° 25° 20° 27° 25° 20° 18° 34° 31°
SKY COVER 3% 3% 3% 3% 3% 3% 3% 3% 3% 3% 5% 7% 9% 11% 12% 14% 16% 19% 21% 23% 26% 28% 31% 29% 29% 30% 33% 39% 37% 36% 35% 21% 22% 26% 54% 84% 89% 65% 50% 49% 59% 41% 32% 29% 23% 35% 36%
Clouds
DEW PT 11° 11° 11° 11° 11° 11° 11° 11° 11° 11° 11° 11° 13° 16° 16° 16° 16° 20° 22° 25° 25° 25° 25° 31° 31° 34° 31° 25° 22° 18° 13° 13° 11° 11° 11° 11° 14°
RH 62% 65% 64% 67% 67% 67% 70% 73% 76% 79% 83% 79% 80% 73% 70% 64% 56% 48% 42% 39% 34% 35% 50% 62% 68% 70% 77% 65% 46% 48% 63% 84% 95% 60% 67% 85% 92% 69% 69% 74% 73% 52% 55% 67% 70% 39% 51%
POP 12HR 1% -- -- -- -- -- -- -- -- -- -- -- 0% -- -- -- -- -- -- -- -- -- 0% -- -- -- 0% -- -- -- 1% -- 0% -- 0% -- 23% -- 25% -- 10% -- 5% -- 2% -- 3%
RAIN/SNOW (liq.equ) 0.00in -- -- -- -- -- 0.00in -- -- -- -- -- 0.00in -- -- -- -- -- 0.00in -- -- -- 0.00in -- 0.00in -- 0.00in -- 0.00in -- 0.00in -- -- -- -- -- -- -- -- -- -- -- -- -- -- -- --
SNOWFALL 0in -- -- -- -- -- 0in -- -- -- -- -- 0in -- -- -- -- -- 0in -- -- -- 0in -- 0in -- 0in -- 0in -- 0in -- -- -- -- -- -- -- -- -- -- -- -- -- -- -- --
WIND SPEED(MPH) 5 5 2 2 2 2 0 1 1 1 0 0 0 0 0 0 1 2 5 6 6 6 1 1 1 1 1 6 9 8 2 1 1 8 6 6 7 7 6 6 6 7 5 1 1 6 5
WIND DIR NE NE E E E E NE S S SE SE SE N S S S S SW SW SW W W W W W SW SW SW SW W W NW S SW S SW NW NW N N N N N NW NW SW SW
HeatIndex 15 14 14 13 13 13 18 16 16 14 13 13 16 18 20 22 25 25 27 28 31 31 29 27 25 25 22 25 34 37 33 29 25 38 38 33 26 28 25 18 13 20 20 20 18 28 26
Snow -- -- -- -- -- -- -- -- -- -- -- -- -- -- -- -- -- -- -- -- -- -- -- -- -- -- -- -- -- -- -- -- -- -- -- -- Chance Slight Chance -- -- -- -- -- -- -- -- --
Rain -- -- -- -- -- -- -- -- -- -- -- -- -- -- -- -- -- -- -- -- -- -- -- -- -- -- -- -- -- -- -- -- -- -- -- Slight Chance -- Slight Chance -- -- -- -- -- -- -- -- --
WIND CHILL 16° 14° -- -- -- -- -- -- -- -- -- -- -- -- -- -- -- -- 26° 29° 31° 31° -- -- -- -- -- 25° 34° 38° -- -- -- 38° 37° 34° 26° 28° 25° 18° 12° 20° 19° -- -- 29° 26°
SPRAY COND
DRY COND
LIVESTOCK COLDSTRESS

Click on individual weather variable above in left-hand column (ie., TEMP, RH, QPF 12HR) to view state forecast maps






NWS 48 Hr. Forecast Maps,

Regional Hourly Observations For HOPKINS County, Kentucky
Issued at 300 AM EST FRI JAN 21 2022
WESTERN AND SOUTH CENTRAL KENTUCKY
  
CITY           SKY/WX    TMP DP  RH WIND       PRES   REMARKS
PADUCAH        CLEAR     16   7  67 N6        30.48F WCI   7          
HENDERSON      CLOUDY    23  11  60 NE10      30.49  WCI  12          
OWENSBORO      CLOUDY    23  12  62 NE6       30.48  WCI  16          
HOPKINSVILLE   CLEAR     18  15  87 N6        30.44R WCI  10          
BOWLING GREEN  CLEAR     20  11  68 N3        30.45                   
GLASGOW        CLEAR     18  11  74 CALM      30.43R                  


Current NOWCAST not available:
Nowcasts are not issued routinely during fair weather. Only when
precipitation or other significant weather is occuring in this county will these
forecasts be issued. Currently, there is no short term forecast in effect.


Fire Weather Forecast For HOPKINS County, KY
Provided by the National Weather Service:

Issued at: Fri Jan 21 03:05:02 EST 2022

Precip Type           None         None         None         None         
Chance Precip (%)     0            0            0            0            
High Temperature(F)                27-31                     34-38        
Minimum RH(%)                      39-44                     34-39        
Low Temperature(F)    13-17                     12-16                     
Maximum RH(%)         78-83                     78-83                     
Temp (24h Trend)      15 (-1)      30 (+4)      13           37           
RH % (24h Trend)      81 (-12)     42 (-17)     81           37           
20FTWND-AM(MPH)                    NE 6-10 G17               Lgt/Var      
20FTWND-PM(MPH)       N 7-11 G18   NE 5-9       Lgt/Var      Lgt/Var      
Precip Amount         0.00         0.00         0.00         0.00         
Precip Duration                                                           
Precip Begin                                                              
Precip End                                                                
1700'Mix Hgt Temp                  26                        37           
Mixing Hgt(FT-AGL)                 3649                      2556         
Transport Wind (KTS)               NE  5                     W  8         
Transport Wind (M/S)               NE  3                     W  4         
Vent Rate (M/S-M)                  2867                      3213         
Dispersion Index                   Poor to Fair              Fair         
LAL                   1            1            1            1            
Haines Index          3            4            4            4            
Stability(DSI)        STBL         SLGT UNSTBL  STBL         STBL         

Remarks...None.

.Forecast for days 3 through 7...

.SATURDAY NIGHT...Partly cloudy. Lows in the lower 20s. West
winds around 5 mph. 
.SUNDAY...Mostly sunny. Highs in the mid 40s. Southwest winds
5 to 15 mph. 
.SUNDAY NIGHT...Mostly clear. Lows in the mid 20s. West winds
around 5 mph. 
.MONDAY...Sunny. Highs in the upper 40s. Southwest winds 5 to
10 mph. 
.MONDAY NIGHT...Mostly cloudy with a 20 percent chance of rain.
Lows around 30. Southwest winds 5 to 10 mph. 
.TUESDAY...Partly sunny with a 20 percent chance of rain and
snow. Colder. Highs in the upper 30s. Northwest winds 5 to
10 mph. 
.TUESDAY NIGHT...Partly cloudy. Colder. Lows around 19. North
winds 5 to 10 mph. 
.WEDNESDAY...Mostly sunny. Highs in the lower 30s. North winds
5 to 10 mph. 
.WEDNESDAY NIGHT...Partly cloudy. Lows around 17. North winds
around 5 mph. 
.THURSDAY...Mostly sunny. Highs in the upper 30s. West winds 5 to
10 mph. 

SPC's Fire Weather Web Tool (Excellent!), SPC's Fire Weather Outlooks, NWS Fire Weather WEB, Fire Danger Class Map,
Keetch-Byram Drought Index, ROMAN Web, Haines Index ,
WFAS's 10-hr Dead Fuel Moist., WFAS's 100-hr Dead Fuel Moist., Probablity of Ignition, Visual blackness Map, Palmer Drought Index, HPC's Rainfall Forecast Maps


Hazardous Weather Outlook For HOPKINS County, Kentucky
230 PM CST Thu Jan 20 2022

 DAY ONE  This Afternoon and Tonight

Wind chills near or slightly below 0 will be possible in much of 
Southeast Missouri late tonight to early Friday morning. Elsewhere
across the Quad State, wind chill values in the lower half of the
single digits are likely.

 DAYS TWO THROUGH SEVEN  Friday through Wednesday

Wind chills in the lower half of the single digits are possible late 
Tuesday night and early Wednesday morning along and north and west 
of a line from Fairfield, Illinois, to Perryville, Missouri.

 SPOTTER INFORMATION STATEMENT  

Spotter activation will not be needed.

Latest HOPKINS County, Kentucky Watches, Warnings and Advisories.
Additional Drought Info.: UKAWC Drought Page, Kentucky Drought Watch


7-Day Forecast For HOPKINS County, KY

OVERNIGHT
Partly cloudy. Lows around 17. North winds around 5 mph.

FRIDAY
Mostly sunny. Highs in the lower 30s. Northeast winds around 5 mph.

FRIDAY NIGHT
Clear. Lows around 11. Northeast winds around 5 mph in the evening becoming calm after midnight.

SATURDAY
Mostly sunny. Highs in the upper 30s. Southwest winds 5 to 10 mph.

SATURDAY NIGHT
Partly cloudy. Lows in the lower 20s. Southwest winds 5 mph.

SUNDAY
Partly sunny. Highs in the mid 40s.

SUNDAY NIGHT
Mostly clear. Lows in the lower 20s.

MONDAY
Mostly sunny. Highs around 50.

MONDAY NIGHT
Mostly cloudy. A 20 percent chance of rain

possibly mixed with snow after midnight. Lows around 30.

TUESDAY
Partly sunny with a 30 percent chance of rain and snow. Highs in the upper 30s.

TUESDAY NIGHT
Partly cloudy. Lows around 18.

WEDNESDAY
Partly sunny. Highs in the lower 30s.

WEDNESDAY NIGHT
Mostly clear. Lows around 17.

THURSDAY
Partly sunny. Highs in the upper 30s.

Ag Weather Center, Department of Biosystems & Agricultural Engineering, University of Kentucky